Meeker, CO

9:17 AM MDT on April 20, 2018 (GMT -0600)
Meeker

Weather History for KEEO - November, 2012

Change the Weather History Date:

Sunday, November 18, 2012

  Actual Average Record
Temperature  
Mean Temperature 45 °F 31 °F  
Max Temperature 52 °F 44 °F 66 °F (2008)
Min Temperature 37 °F 18 °F -14 °F (2000)
Degree Days  
Heating Degree Days 20 34  
Month to date heating degree days 483 547  
Since 1 July heating degree days 1320 1491  
Cooling Degree Days 0 0  
Month to date cooling degree days 0 0  
Year to date cooling degree days 325 172  
Moisture  
Dew Point 31 °F    
Average Humidity 59    
Maximum Humidity 76    
Minimum Humidity 41    
Precipitation  
Precipitation T in 0.05 in 0.04 in (2003)
Month to date precipitation 0.52 0.97  
Year to date precipitation 7.81 14.45  
Sea Level Pressure  
Sea Level Pressure 30.02 in    
Wind  
Wind Speed 8 mph (SW)    
Max Wind Speed 22 mph    
Max Gust Speed 29 mph    
Visibility 10 miles    
Events      
T = Trace of Precipitation, MM = Missing Value Source: NWS Daily Summary

Daily Weather History Graph

Daily Weather History Graph

Search for Another Location

Airport or City:

Astronomy

Nov. 18, 2012 Rise Set
Actual Time 7:00 AM MST 4:52 PM MST
Civil Twilight 6:31 AM MST 5:21 PM MST
Nautical Twilight 5:58 AM MST 5:54 PM MST
Astronomical Twilight 5:26 AM MST 6:26 PM MST
Moon 11:29 AM MST (11/18) 10:15 PM MST (11/18)
Length of Visible Light 10h 50m
Length of Day
9h 51m
Waxing Crescent, 31% of the Moon is Illuminated
Nov 18
Waxing Crescent
Nov 20
First Quarter
Nov 28
Full
Dec 6
Last Quarter
Dec 13
New

Hourly Weather History & Observations

Time (MST) Temp. Windchill Dew Point Humidity Pressure Visibility Wind Dir Wind Speed Gust Speed Precip Events Conditions
12:53 AM 41.0 °F - 30.9 °F 67% 29.98 in 10.0 mi Calm Calm - 0.00 in   Overcast
1:53 AM 42.1 °F 37.7 °F 30.9 °F 65% 29.97 in 10.0 mi SSE 6.9 mph - N/A   Overcast
2:53 AM 42.1 °F 39.2 °F 32.0 °F 67% 29.97 in 10.0 mi Variable 4.6 mph - N/A   Partly Cloudy
3:53 AM 42.1 °F 37.1 °F 32.0 °F 67% 29.94 in 10.0 mi South 8.1 mph - N/A   Overcast
4:53 AM 41.0 °F 34.7 °F 33.1 °F 73% 29.99 in 10.0 mi SW 10.4 mph - N/A   Overcast
5:53 AM 42.1 °F 39.2 °F 32.0 °F 67% 30.00 in 10.0 mi West 4.6 mph - N/A   Overcast
6:53 AM 41.0 °F 36.4 °F 33.1 °F 73% 30.01 in 10.0 mi West 6.9 mph - N/A   Overcast
7:53 AM 42.1 °F 34.9 °F 33.1 °F 70% 30.01 in 10.0 mi SSW 13.8 mph - N/A   Overcast
8:53 AM 43.0 °F 37.2 °F 33.1 °F 68% 30.02 in 10.0 mi SW 10.4 mph - N/A   Scattered Clouds
9:53 AM 46.0 °F 39.6 °F 33.1 °F 61% 30.02 in 10.0 mi SSW 15.0 mph 21.9 mph N/A   Clear
10:53 AM 46.9 °F - 33.1 °F 59% 30.02 in 10.0 mi SW 16.1 mph 25.3 mph N/A   Mostly Cloudy
11:53 AM 48.9 °F - 34.0 °F 56% 29.99 in 10.0 mi SSW 17.3 mph 27.6 mph N/A   Partly Cloudy
12:53 PM 51.1 °F - 30.0 °F 44% 29.97 in 10.0 mi SSW 16.1 mph 21.9 mph N/A   Mostly Cloudy
1:53 PM 52.0 °F - 30.9 °F 45% 29.96 in 10.0 mi SSW 15.0 mph 28.8 mph N/A   Overcast
2:53 PM 50.0 °F - 30.0 °F 46% 29.98 in 10.0 mi SW 12.7 mph - N/A   Overcast
3:53 PM 51.1 °F - 28.9 °F 43% 29.99 in 10.0 mi SW 13.8 mph - N/A   Scattered Clouds
4:53 PM 46.0 °F 41.4 °F 30.0 °F 54% 30.02 in 10.0 mi SW 9.2 mph - N/A   Clear
5:53 PM 41.0 °F - 30.9 °F 67% 30.06 in 10.0 mi Calm Calm - N/A   Mostly Cloudy
6:53 PM 41.0 °F 39.0 °F 30.9 °F 67% 30.10 in 10.0 mi WSW 3.5 mph - N/A   Mostly Cloudy
7:53 PM 37.9 °F - 30.9 °F 76% 30.10 in 10.0 mi Calm Calm - N/A   Scattered Clouds
8:53 PM 41.0 °F 38.0 °F 30.9 °F 67% 30.10 in 10.0 mi NE 4.6 mph - N/A   Clear
9:53 PM 42.1 °F 40.2 °F 30.0 °F 62% 30.10 in 10.0 mi North 3.5 mph - N/A   Partly Cloudy
10:53 PM 43.0 °F 41.3 °F 30.0 °F 60% 30.10 in 10.0 mi SSW 3.5 mph - N/A   Mostly Cloudy
11:53 PM 39.0 °F 35.7 °F 30.0 °F 70% 30.12 in 10.0 mi NNE 4.6 mph - N/A   Overcast